[[{"header":{"parameterUnit":"m.s-1","parameterCategory":1,"la1":30.2992,"la2":30.254,"lo1":-89.0895,"lo2":-89.0443,"dy":0.0025,"dx":0.0025,"nx":19,"ny":19,"refTime":"2026-04-17T03:00:00:Z","depth":0,"parameterNumber":2,"parameterNumberName":"U-component_of_WINDS"},"data":[0,0,0,0.0176,0.0178,0.0245,0.0246,0.0321,0.0322,0,0,0,0,0,0,0,0,0,0,0,0.015,0.0151,0.0176,0.0178,0.0245,0.0246,0.0321,0.0322,0,0,0,0,0,0,0,0,0,0,0,0.015,0.0151,0.0151,0.0178,0.0245,0.0246,0.0321,0.0274,0,0,0,0,0,0,0,0,0,0,0.021,0.018,0.015,0.0151,0.0178,0.0245,0.0246,0.0272,0.0277,0.0286,0,0.0293,0,0.0309,0.0326,0.0327,0,0,0,0.0182,0.0176,0.02,0.0151,0.0179,0.0245,0.0216,0.0275,0.028,0.0293,0.0295,0.0298,0.031,0.0327,0.0327,0.0366,0.0365,0,0,0.0179,0.0159,0.0196,0.0203,0.0192,0.0214,0.0218,0.0278,0.0279,0.0295,0.03,0.0311,0.0327,0.0328,0.0366,0.0366,0,0,0,0.0165,0.0156,0.0179,0.02,0.0212,0.0216,0.0221,0.0276,0.0285,0.0301,0.0312,0.0328,0.0328,0.0366,0.0366,0.0345,0,0,0,0.0163,0.0149,0.0177,0.0166,0.0211,0.0245,0.0217,0.0281,0.0288,0.0312,0.0328,0.0329,0.0366,0.0366,0.0345,0.0338,0,0,0,0.0148,0.0147,0.0154,0.0165,0.0193,0.0245,0.0257,0.0283,0.0295,0.0327,0.0329,0.0366,0.0366,0.0346,0.0339,0.0342,0,0,0,0.0127,0.0136,0.0154,0.0168,0.0192,0.0231,0.0257,0.0287,0.0312,0.0328,0.0366,0.0366,0.0346,0.034,0.0343,0.0341,0.0339,0,0,0.0127,0.0135,0.0145,0.0163,0.0194,0.0222,0.025,0.0291,0.0312,0.0346,0.0348,0.0345,0.0339,0.0342,0.0331,0.0329,0,0,0,0.0139,0.0146,0.0158,0.018,0.0211,0.0237,0.0275,0.029,0.032,0.0326,0.0347,0.0345,0.0347,0.0347,0.0346,0.0349,0.0365,0.0365,0.0365,0.0113,0.0138,0.0156,0.0188,0.0209,0.0248,0.0267,0.0294,0.0314,0.0318,0.0329,0.0319,0.0319,0.0317,0.032,0.033,0.033,0.033,0.033,0.0116,0.0129,0.0154,0.0181,0.0207,0.0229,0.0266,0.0279,0.0303,0.0314,0.0317,0.0327,0.0314,0.0318,0.0329,0.0329,0.0329,0.0329,0.0329,0.0102,0.0112,0.013,0.0163,0.0186,0.0218,0.024,0.0263,0.0285,0.0288,0.0301,0.0302,0.0305,0.0293,0.0293,0.0293,0.0293,0.0293,0.0293,0.008,0.01,0.0116,0.0148,0.0164,0.0189,0.0226,0.0242,0.0267,0.0282,0.0282,0.0301,0.0308,0.0309,0.0292,0.0292,0.0292,0.0292,0.0292,0.0075,0.0079,0.0103,0.0119,0.0158,0.0178,0.0207,0.0238,0.0255,0.0264,0.0282,0.0283,0.0293,0.0295,0.0296,0.0277,0.0277,0.0277,0.0277,0.0063,0.007,0.0098,0.0122,0.0149,0.0176,0.0201,0.0229,0.0259,0.0271,0.0277,0.028,0.0281,0.029,0.0292,0.0294,0.0274,0.0274,0.0274,0.006,0.0071,0.0088,0.0117,0.0149,0.0175,0.0198,0.0224,0.0259,0.0274,0.028,0.028,0.0286,0.0287,0.0304,0.0306,0.0309,0,0]},{"header":{"parameterUnit":"m.s-1","parameterCategory":1,"la1":30.2992,"la2":30.254,"lo1":-89.0895,"lo2":-89.0443,"dy":0.0025,"dx":0.0025,"nx":19,"ny":19,"refTime":"2026-04-17T03:00:00:Z","depth":0,"parameterNumber":3,"parameterNumberName":"V-component_of_WINDS"},"data":[0,0,0,4.2919,4.2918,4.2856,4.2856,4.2778,4.2778,0,0,0,0,0,0,0,0,0,0,0,4.2941,4.294,4.2919,4.2918,4.2856,4.2856,4.2778,4.2778,0,0,0,0,0,0,0,0,0,0,0,4.2941,4.2941,4.294,4.2918,4.2856,4.2856,4.2778,4.2824,0,0,0,0,0,0,0,0,0,0,4.2883,4.2907,4.2941,4.294,4.2917,4.2857,4.2856,4.2826,4.2821,4.2807,0,4.2799,0,4.2787,4.2773,4.2772,0,0,0,4.2914,4.2911,4.2892,4.294,4.2917,4.2857,4.2883,4.2823,4.2818,4.2801,4.2798,4.2795,4.2786,4.2772,4.2772,4.2714,4.2714,0,0,4.2918,4.2931,4.2896,4.2889,4.2902,4.2885,4.2881,4.282,4.2816,4.2798,4.2793,4.2785,4.2772,4.2771,4.2714,4.2714,0,0,0,4.293,4.2933,4.2915,4.2892,4.2881,4.2883,4.2879,4.2819,4.2812,4.2792,4.2784,4.2771,4.277,4.2714,4.2714,4.2723,0,0,0,4.2932,4.294,4.2917,4.2924,4.2883,4.285,4.2879,4.2816,4.2809,4.2784,4.2771,4.277,4.2714,4.2714,4.2723,4.2725,0,0,0,4.2943,4.2942,4.2934,4.2925,4.29,4.285,4.284,4.2814,4.2804,4.2772,4.277,4.2714,4.2714,4.2723,4.2724,4.2714,0,0,0,4.2959,4.2941,4.2935,4.2911,4.29,4.2858,4.284,4.2807,4.2781,4.2771,4.2714,4.2714,4.2723,4.2724,4.2714,4.2707,4.2706,0,0,4.2943,4.2939,4.2925,4.2918,4.288,4.2866,4.2829,4.2791,4.2774,4.2734,4.2732,4.2723,4.2724,4.2714,4.2695,4.2694,0,0,0,4.2924,4.2914,4.2901,4.2879,4.2852,4.2829,4.2796,4.2782,4.2748,4.2757,4.2716,4.2716,4.271,4.2706,4.2705,4.2698,4.2713,4.2713,4.2713,4.2919,4.2902,4.2877,4.2853,4.2831,4.2799,4.2779,4.2755,4.274,4.2731,4.2719,4.271,4.2706,4.2706,4.2699,4.2714,4.2715,4.2715,4.2715,4.2894,4.2877,4.2863,4.2834,4.2815,4.2788,4.2756,4.2748,4.2719,4.2717,4.271,4.2709,4.2705,4.2698,4.2715,4.2715,4.2715,4.2715,4.2715,4.2889,4.2878,4.2864,4.2832,4.2808,4.2783,4.2758,4.2741,4.2724,4.2717,4.2702,4.2702,4.2699,4.2712,4.2712,4.2712,4.2712,4.2712,4.2711,4.2888,4.2873,4.2855,4.2827,4.2812,4.2789,4.2758,4.274,4.2717,4.2706,4.2706,4.2693,4.2709,4.2713,4.2711,4.2711,4.2711,4.2711,4.2711,4.2869,4.2871,4.2844,4.2829,4.2795,4.2773,4.2753,4.2721,4.2704,4.2692,4.2681,4.2696,4.2689,4.269,4.2693,4.2685,4.2685,4.2685,4.2685,4.2864,4.286,4.283,4.2807,4.2782,4.2762,4.273,4.2705,4.268,4.2668,4.2667,4.267,4.2671,4.2664,4.2665,4.2667,4.2654,4.2654,4.2653,4.2851,4.2845,4.2822,4.2801,4.2773,4.275,4.2719,4.2691,4.2662,4.2652,4.2658,4.266,4.2665,4.2667,4.2656,4.2658,4.2662,0,0]}]]